Location: Alpine
(43.1636°N, 111.0180°W)
Time: 05:05:35
(UTC+00:00)

Tiros 1 despin weight - Pass Details

Date: 28 May 2022
Orbit: 591 x 639 km, 48.2° (Epoch: 30 June)

Event Time Altitude Azimuth Distance (km) Brightness Sun altitude
Rises 05:15:32 0° 293° (WNW) 2,848 ? -19.2°
Reaches altitude 10° 05:17:51 10° 296° (WNW) 1,937 ? -19.4°
Maximum altitude 05:22:16 66° 19° (NNE) 650 ? -19.8°
Enters shadow 05:24:10 32° 92° (E) 1,020 ? -20.0°
Drops below altitude 10° 05:26:38 10° 102° (ESE) 1,916 - -20.2°
Sets 05:28:55 0° 106° (ESE) 2,814 - -20.4°
